Dewpoint
-8 -8 -10 -12 -12 -14 -12 -12 -13 -12 -9 -8 -7 -7 -8 -8 -8 -8 -8 -8 -8 -8 -8 -8 -8 -8 -8 -8 -9 -9 -8 -7 -8 -7 -4 -5 -2 -1 -2 -0 -7 -13 8
-8 -9 -12 -13 -12 -12 -12 -13 -12 -10 -9 -6 -7 -8 -8 -8 -8 -8 -8 -8 -8 -8 -8 -7 -7 -7 -7 -8 -7 -9 -9 -8 -8 -8 -3 -6 -2 -1 -0 1 -1 -9 6
-10 -11 -13 -13 -12 -12 -11 -11 -10 -8 -7 -6 -7 -8 -8 -7 -7 -8 -7 -7 -7 -7 -7 -7 -8 -7 -7 -7 -8 -9 -9 -9 -8 -8 -4 -3 -2 -0 0 1 1 -5 5
-11 -12 -14 -13 -12 -11 -10 -9 -9 -11 -8 -7 -7 -8 -8 -7 -7 -7 -6 -6 -6 -6 -6 -6 -6 -7 -7 -8 -8 -9 -9 -9 -8 -8 -5 -1 -0 -0 1 0 -4 -0 7
-12 -16 -14 -11 -12 -11 -10 -10 -11 -9 -7 -6 -7 -7 -7 -7 -6 -7 -6 -6 -5 -5 -4 -4 -5 -6 -7 -8 -8 -10 -9 -8 -9 -8 -4 -0 1 2 1 -1 -4 5 8
-16 -18 -13 -12 -10 -10 -11 -13 -11 -10 -7 -5 -7 -7 -7 -6 -6 -6 -6 -5 -4 -4 -4 -4 -5 -6 -6 -8 -10 -11 -9 -9 -9 -6 -1 -0 2 1 0 -2 5 6 7
-19 -18 -13 -12 -11 -12 -13 -18 -16 -10 -6 -5 -6 -7 -7 -6 -6 -6 -5 -5 -4 -3 -3 -3 -4 -5 -6 -7 -8 -9 -9 -9 -6 -2 -0 1 3 -3 4 3 6 7 7
-21 -18 -14 -16 -19 -24 -23 -23 -20 -10 -6 -5 -5 -6 -6 -6 -6 -6 -5 -5 -4 -3 -2 -2 -1 -3 -5 -7 -7 -7 -7 -4 -2 0 0 0 -2 4 3 7 8 7 7
-21 -19 -22 -28 -35 -34 -29 -27 -22 -5 -3 -4 -5 -5 -6 -6 -5 -5 -5 -4 -4 -3 -2 -2 -2 -1 -0 -1 -2 -2 -1 -0 -0 1 1 2 3 5 7 8 8 6 7
-19 -23 -34 -36 -39 -37 -35 -34 -26 -9 -3 -2 -3 -4 -5 -5 -5 -5 -3 -3 -2 -2 -2 -1 -1 -1 -0 1 -0 1 2 0 1 1 3 6 7 5 7 7 7 7 7
-31 -32 -36 -37 -37 -37 -37 -37 -35 -31 -16 -4 -4 -3 -3 -4 -4 -5 -3 -2 -2 -1 -2 -3 -1 1 2 3 3 4 4 3 4 5 7 7 6 7 8 7 8 7 6
-34 -34 -35 -35 -35 -35 -35 -35 -35 -37 -38 -19 -4 -2 -2 -2 -3 -3 -2 -2 -1 -0 -1 -2 -0 2 3 3 3 3 4 7 7 7 7 7 7 7 7 7 6 3 4
-30 -33 -35 -34 -33 -33 -33 -34 -33 -33 -34 -34 -25 -6 -2 -1 -2 -3 -2 -1 0 0 -0 0 2 3 3 5 4 6 7 7 7 7 7 7 7 6 6 5 4 6 5
-24 -26 -30 -32 -33 -32 -32 -32 -33 -32 -32 -35 -35 -22 -7 -0 -1 -2 -1 -0 0 1 3 5 6 5 6 7 8 8 8 8 7 6 5 4 3 2 3 4 1 3 5
-22 -23 -26 -29 -32 -33 -32 -32 -32 -31 -31 -32 -33 -32 -24 -7 -2 -0 -0 -0 -0 0 3 4 5 6 6 5 5 7 7 7 6 6 6 6 6 6 5 5 4 3 4
-22 -22 -24 -26 -29 -31 -32 -31 -32 -32 -32 -32 -32 -34 -34 -31 -14 0 2 1 1 1 3 2 1 2 2 3 4 4 6 7 7 6 5 6 6 6 6 6 6 5 4
-21 -22 -22 -23 -24 -25 -27 -29 -31 -30 -30 -30 -30 -31 -31 -32 -32 -32 -15 1 2 2 1 0 1 1 1 1 2 4 6 6 6 7 6 6 7 6 6 6 5 5 6
-21 -21 -21 -22 -22 -22 -23 -25 -25 -26 -27 -27 -27 -28 -28 -28 -30 -33 -36 -37 -24 -2 1 1 1 1 2 3 3 3 3 5 6 6 6 6 6 7 7 6 6 6 6
-22 -21 -21 -21 -21 -21 -21 -21 -22 -23 -25 -26 -25 -26 -26 -26 -25 -26 -28 -32 -36 -39 -36 -13 -1 2 2 2 2 3 4 4 5 6 6 6 6 7 6 6 6 6 5
-22 -22 -21 -21 -21 -21 -21 -20 -20 -21 -21 -22 -22 -24 -23 -22 -22 -24 -25 -26 -28 -30 -33 -36 -38 -36 -19 -4 1 2 3 3 4 4 5 5 5 5 4 4 4 4 4
-21 -21 -21 -21 -21 -21 -21 -21 -20 -21 -21 -21 -21 -22 -22 -22 -22 -22 -24 -24 -24 -26 -26 -27 -29 -31 -33 -35 -36 -36 -34 -28 -15 -6 -3 -1 -0 0 0 0 0 -1 -2
-20 -20 -21 -21 -21 -20 -20 -20 -20 -20 -20 -20 -20 -20 -20 -20 -20 -21 -22 -22 -22 -23 -23 -23 -23 -24 -25 -25 -26 -28 -30 -32 -34 -35 -36 -37 -37 -37 -37 -37 -38 -38 -38
-19 -19 -20 -20 -20 -20 -20 -20 -20 -19 -19 -19 -19 -19 -19 -19 -19 -19 -20 -20 -20 -20 -21 -20 -20 -20 -21 -21 -21 -21 -21 -23 -24 -24 -24 -24 -25 -26 -26 -27 -28 -27 -27
-19 -19 -19 -19 -19 -19 -19 -19 -19 -19 -19 -19 -19 -19 -19 -19 -18 -18 -18 -18 -18 -18 -18 -18 -18 -18 -17 -17 -17 -16 -16 -17 -17 -17 -17 -16 -16 -17 -17 -17 -18 -18 -19
-18 -18 -18 -18 -18 -18 -18 -18 -18 -18 -19 -19 -19 -19 -19 -18 -18 -18 -18 -18 -17 -17 -16 -16 -16 -15 -15 -15 -15 -14 -14 -14 -14 -14 -14 -14 -13 -14 -14 -15 -15 -15 -15
-18 -18 -18 -18 -18 -18 -17 -17 -17 -18 -18 -18 -18 -18 -18 -18 -18 -18 -18 -18 -17 -17 -16 -16 -16 -15 -15 -15 -15 -15 -15 -15 -14 -14 -14 -14 -14 -14 -14 -14 -14 -14 -15
Wind_Speed
17 20 23 23 26 27 28 27 25 30 28 37 34 36 30 20 16 15 15 15 14 16 16 21 23 24 28 33 34 35 34 29 27 18 17 26 25 20 23 18 20 30 49
17 20 23 24 28 29 29 28 30 31 32 43 36 28 25 19 15 15 13 11 13 15 18 20 23 26 27 31 31 35 36 33 31 27 19 24 30 22 19 21 19 39 38
18 21 24 26 27 28 29 31 33 31 32 38 34 27 24 19 19 18 11 8 8 10 13 19 25 28 31 32 34 35 38 35 32 28 20 20 29 24 23 21 22 37 40
19 21 23 26 28 27 29 31 32 33 39 37 34 31 26 22 19 15 9 7 2 4 9 16 26 33 37 36 36 36 38 37 32 28 22 22 26 28 24 23 28 38 41
19 22 23 26 28 28 29 31 33 35 43 35 34 39 36 26 18 18 14 14 10 3 2 7 13 24 32 34 40 40 40 37 33 31 26 29 31 31 29 25 45 43 38
21 24 25 28 29 30 31 32 32 35 40 34 36 40 39 26 20 22 26 21 15 9 10 14 17 22 28 33 34 39 39 40 38 35 30 35 31 32 29 41 43 39 36
22 24 28 29 28 28 31 31 30 33 35 34 38 42 44 29 24 28 29 30 25 13 13 17 20 24 31 34 31 32 32 33 32 33 37 36 30 30 33 48 38 43 37
25 25 28 31 29 28 27 29 30 31 33 37 40 41 43 33 28 33 38 40 34 22 17 18 21 25 30 35 34 33 32 32 30 30 35 37 39 37 48 43 51 50 48
27 28 29 30 31 31 30 30 31 35 40 41 41 42 44 38 34 36 42 46 46 35 25 23 28 27 26 30 33 33 29 28 29 32 32 29 34 51 41 61 60 57 54
24 26 28 30 34 37 36 34 33 37 42 43 44 43 42 43 43 44 47 51 50 41 35 31 32 34 30 27 31 29 28 31 32 35 26 38 52 49 47 46 63 63 57
23 24 28 31 33 36 40 42 41 42 41 43 45 45 44 42 44 50 48 50 52 47 45 44 37 38 38 35 36 44 47 42 52 64 70 62 61 52 56 52 55 56 54
25 27 29 31 32 35 40 43 47 50 49 47 48 50 49 44 42 43 47 48 48 50 51 52 50 46 45 49 60 61 66 71 66 61 58 64 57 56 50 52 52 47 48
22 26 28 30 32 35 40 44 49 53 54 54 53 50 51 51 44 40 42 45 44 47 51 55 58 65 68 71 70 69 67 63 64 61 62 61 56 53 50 51 49 54 49
20 22 25 28 32 34 39 43 48 52 54 53 51 50 50 51 52 48 45 45 45 48 48 50 55 53 60 64 63 62 63 64 63 64 59 54 53 48 45 45 42 40 43
18 21 23 26 29 32 36 41 44 45 47 49 48 49 51 49 50 54 54 53 52 51 50 49 51 52 52 53 58 62 64 65 67 60 60 57 53 53 51 48 46 45 43
17 19 21 24 26 29 31 34 37 38 40 42 44 48 48 48 51 54 62 59 61 60 57 58 55 53 53 51 54 56 60 62 60 58 53 50 48 46 45 42 40 39 39
15 17 19 21 23 25 28 31 33 34 36 39 42 44 47 48 53 59 60 60 65 67 67 62 57 55 52 51 53 52 51 49 50 50 48 45 43 44 41 38 34 33 34
12 14 16 19 20 22 24 27 29 31 34 37 37 40 43 46 50 56 62 61 66 66 66 65 62 56 53 49 48 48 44 48 48 49 47 44 43 40 38 36 34 32 31
11 12 14 15 17 19 21 23 25 27 28 29 31 35 37 40 46 53 57 61 62 63 62 60 58 58 58 56 53 49 44 40 43 43 43 43 38 32 33 33 33 32 32
9 11 12 13 15 16 18 20 22 24 25 26 29 31 32 34 45 49 50 52 53 54 54 56 56 56 54 52 52 51 49 46 45 45 45 42 38 37 36 32 29 25 21
7 8 9 11 12 14 16 17 19 20 22 23 26 26 29 34 37 39 41 43 44 45 45 46 48 49 49 49 50 50 50 48 44 42 41 39 37 36 34 30 28 25 24
6 6 7 8 10 11 12 14 15 17 19 20 22 23 26 28 30 32 34 35 36 37 37 38 40 41 41 40 41 42 43 43 41 39 39 37 35 34 31 30 28 27 25
6 5 5 5 6 7 9 10 12 13 15 16 18 19 21 23 25 25 27 29 28 29 30 31 32 33 33 33 33 33 34 35 33 30 30 30 29 28 25 24 22 20 18
7 6 5 5 4 4 5 6 7 9 11 13 14 15 16 17 18 20 21 22 22 23 24 24 25 25 25 25 25 25 26 26 24 23 22 21 21 19 17 16 15 14 12
8 8 7 6 4 3 3 3 4 5 6 8 9 10 11 13 14 15 15 15 16 17 17 17 17 18 18 18 18 18 18 18 17 16 15 14 13 12 11 10 9 7 5
10 9 9 8 8 6 5 3 3 2 3 3 5 6 7 8 9 10 11 11 11 11 11 11 12 12 12 13 13 13 13 12 12 11 11 10 9 7 6 5 4 3 2
Wind_Direction
359 349 351 3 0 357 359 355 349 344 341 335 336 338 330 326 325 322 305 284 272 259 245 235 229 222 216 217 216 215 214 212 215 191 194 195 189 182 183 186 194 193 170
354 352 2 6 2 1 360 359 352 348 344 343 340 341 344 342 340 335 313 288 263 249 239 229 222 216 211 207 208 206 207 207 210 203 182 191 179 179 182 185 189 187 179
360 3 6 10 1 1 5 0 360 1 341 349 354 6 4 349 354 353 335 316 278 250 230 222 214 208 203 199 199 200 201 203 206 206 199 176 174 174 179 185 186 187 171
8 8 11 8 5 6 5 4 3 358 350 5 11 18 14 0 355 5 2 9 344 234 213 217 208 202 198 197 192 195 194 197 200 199 194 166 174 173 178 180 177 170 166
8 11 14 12 12 12 9 9 4 1 359 7 19 28 23 13 4 26 36 44 56 83 144 138 165 187 191 190 186 187 189 190 191 189 182 162 168 174 174 173 170 175 150
15 17 19 16 15 14 14 13 11 7 4 16 28 30 29 13 24 45 52 59 64 86 111 118 123 154 167 171 179 183 186 183 182 181 168 163 168 174 166 168 160 167 144
22 23 22 16 15 17 20 15 17 17 8 24 33 36 33 24 37 55 66 63 74 85 105 129 136 146 157 161 171 178 183 184 177 167 162 168 164 169 163 158 165 150 138
26 26 23 17 19 18 22 24 24 21 19 31 37 40 39 36 39 60 68 68 73 89 104 128 134 134 145 154 159 163 167 169 171 166 171 160 151 165 155 164 151 148 142
34 32 28 32 30 29 29 33 36 25 33 38 39 42 46 45 50 57 70 70 74 87 104 119 128 138 146 152 152 156 161 158 161 168 172 171 165 161 163 153 154 154 142
35 36 42 47 43 41 41 42 47 42 33 41 41 42 49 53 58 59 70 75 81 90 96 110 122 129 135 146 150 152 150 161 163 158 154 153 148 156 154 158 153 149 143
43 50 50 53 52 48 48 47 48 52 49 46 45 44 47 52 60 64 68 75 81 92 93 95 123 136 130 133 133 129 128 138 136 131 136 141 150 144 153 152 151 153 148
58 58 55 54 53 51 51 50 49 51 50 50 50 49 50 49 55 65 72 75 80 89 89 96 116 131 136 132 132 132 130 133 135 140 135 142 144 154 153 150 147 144 143
61 59 57 54 54 51 51 50 48 48 48 48 49 51 50 51 54 67 75 79 81 85 89 102 123 126 130 126 128 136 145 138 135 139 129 131 142 135 143 146 144 148 148
63 61 57 55 54 52 50 48 47 46 46 46 50 53 53 53 56 62 73 80 84 85 92 100 104 112 120 127 130 131 130 134 133 125 124 130 130 131 143 145 148 160 149
66 60 57 56 54 52 51 51 51 49 46 47 49 54 57 57 58 65 71 77 80 85 92 100 101 102 103 106 117 122 127 127 126 130 133 139 139 142 143 148 154 158 155
72 68 63 60 59 58 56 56 56 56 58 57 56 58 63 66 70 69 72 75 81 83 84 86 89 93 97 105 111 113 120 128 132 133 137 136 136 138 141 147 151 153 148
74 74 71 68 65 64 64 62 61 59 60 61 60 62 63 65 67 72 72 74 76 79 80 82 85 89 93 99 107 113 119 127 132 134 136 137 139 137 141 140 144 142 141
80 79 77 74 71 68 67 67 66 63 61 61 61 62 64 66 68 70 73 75 73 74 77 81 84 86 90 96 101 106 113 124 129 131 135 135 136 138 138 140 143 140 138
91 86 81 79 77 73 71 71 71 69 67 68 69 67 65 68 69 69 70 70 71 72 74 78 80 83 85 88 90 96 105 111 119 124 124 125 123 125 131 133 138 142 145
100 95 89 84 82 80 77 74 72 70 69 68 68 68 69 70 69 70 71 71 72 74 75 77 78 81 84 88 91 94 97 100 103 106 111 114 119 120 120 121 121 129 133
109 100 95 91 85 83 82 79 76 75 74 72 71 70 68 68 70 71 73 75 75 75 77 78 80 81 83 85 87 89 90 92 93 96 99 100 102 103 102 104 108 112 111
128 115 106 98 92 88 84 81 79 76 75 74 74 72 70 71 71 71 74 74 75 77 79 82 84 84 84 83 85 89 90 90 91 92 92 92 92 93 95 93 92 91 92
156 143 126 112 104 98 94 92 90 87 82 78 76 74 75 75 76 76 76 78 78 78 78 77 77 79 80 82 84 85 88 90 90 92 96 99 99 99 100 100 98 96 93
184 176 164 149 134 117 104 96 95 95 95 92 88 84 81 79 79 80 81 82 81 81 82 82 82 82 82 83 83 83 83 83 84 85 84 86 88 88 87 86 84 80 75
207 204 197 187 176 163 146 126 112 104 98 97 98 95 95 95 94 91 88 85 85 86 87 88 87 88 90 91 92 94 96 98 100 102 100 99 97 96 92 89 87 87 86
217 218 217 212 208 204 199 188 171 157 135 122 114 110 108 104 103 102 103 104 104 104 105 104 105 107 108 108 109 108 107 105 102 99 96 92 86 81 77 71 64 54 12
Height
1507 1502 1497 1491 1486 1479 1472 1464 1454 1449 1444 1437 1425 1412 1404 1396 1391 1385 1381 1379 1378 1378 1380 1382 1386 1391 1396 1403 1409 1416 1423 1430 1436 1442 1445 1451 1458 1465 1469 1474 1478 1482 1490
1507 1502 1496 1491 1485 1478 1470 1462 1454 1450 1439 1429 1417 1404 1396 1388 1382 1376 1373 1369 1368 1369 1371 1374 1378 1383 1389 1396 1402 1409 1417 1425 1431 1437 1443 1449 1455 1463 1469 1476 1479 1483 1494
1507 1501 1496 1491 1484 1477 1470 1461 1455 1447 1434 1422 1411 1402 1392 1381 1376 1372 1368 1365 1362 1361 1362 1364 1368 1374 1381 1389 1396 1404 1412 1421 1428 1435 1442 1448 1454 1461 1469 1477 1484 1490 1499
1507 1502 1496 1490 1484 1477 1470 1463 1454 1445 1432 1420 1411 1399 1389 1376 1373 1369 1363 1360 1357 1355 1355 1355 1357 1364 1373 1382 1391 1399 1408 1417 1425 1434 1441 1446 1454 1461 1467 1471 1476 1486 1497
1508 1502 1496 1492 1485 1477 1469 1463 1454 1444 1431 1418 1409 1400 1388 1379 1373 1370 1363 1358 1354 1352 1351 1350 1352 1358 1367 1377 1385 1394 1404 1413 1423 1431 1438 1445 1453 1460 1467 1469 1479 1490 1499
1509 1503 1498 1492 1486 1478 1470 1462 1454 1444 1435 1420 1409 1400 1389 1378 1375 1369 1364 1356 1353 1352 1351 1353 1355 1360 1368 1377 1387 1396 1402 1410 1419 1427 1436 1444 1451 1460 1473 1470 1489 1492 1503
1510 1505 1500 1493 1487 1479 1472 1463 1455 1447 1438 1425 1412 1402 1393 1384 1379 1372 1362 1359 1355 1354 1355 1357 1360 1365 1371 1380 1391 1399 1408 1416 1424 1430 1437 1445 1452 1459 1464 1478 1486 1493 1498
1513 1508 1502 1495 1489 1482 1474 1465 1458 1450 1441 1429 1418 1408 1398 1389 1384 1377 1367 1361 1357 1356 1358 1361 1365 1370 1376 1383 1392 1401 1410 1418 1424 1433 1442 1450 1461 1467 1477 1479 1484 1494 1506
1516 1511 1506 1500 1493 1486 1478 1471 1462 1454 1444 1433 1424 1415 1406 1397 1390 1382 1372 1368 1364 1361 1363 1366 1371 1376 1382 1389 1396 1404 1412 1420 1429 1440 1447 1452 1461 1475 1475 1481 1491 1497 1510
1521 1517 1512 1506 1500 1492 1485 1478 1470 1461 1451 1441 1431 1422 1415 1406 1397 1388 1380 1376 1372 1369 1371 1375 1380 1383 1387 1393 1401 1408 1414 1422 1431 1442 1450 1452 1465 1481 1484 1493 1500 1506 1517
1527 1523 1519 1513 1507 1501 1494 1487 1479 1467 1460 1448 1440 1432 1423 1414 1407 1399 1390 1387 1385 1384 1382 1382 1389 1392 1397 1401 1409 1416 1420 1426 1438 1443 1443 1456 1466 1480 1488 1501 1514 1519 1527
1533 1528 1524 1520 1514 1508 1503 1496 1489 1478 1469 1459 1449 1440 1434 1425 1417 1409 1403 1398 1397 1394 1395 1397 1397 1401 1405 1410 1416 1425 1430 1432 1436 1447 1455 1466 1476 1489 1499 1510 1519 1529 1536
1537 1534 1531 1527 1522 1515 1510 1503 1495 1487 1479 1469 1460 1453 1446 1439 1431 1423 1416 1410 1407 1404 1406 1409 1409 1408 1411 1418 1425 1426 1434 1444 1450 1459 1470 1478 1491 1500 1511 1518 1528 1535 1540
1542 1539 1536 1533 1529 1523 1517 1511 1504 1496 1490 1484 1477 1468 1461 1455 1445 1436 1429 1425 1422 1419 1417 1417 1418 1420 1423 1427 1433 1440 1449 1456 1463 1472 1483 1494 1500 1510 1520 1530 1535 1546 1551
1546 1543 1541 1539 1536 1530 1525 1520 1515 1510 1505 1500 1493 1486 1477 1469 1463 1457 1447 1440 1437 1434 1432 1431 1433 1436 1439 1444 1447 1452 1460 1468 1475 1486 1495 1505 1513 1521 1528 1538 1545 1551 1556
1550 1549 1546 1544 1542 1539 1535 1531 1528 1524 1520 1516 1511 1504 1499 1493 1484 1475 1466 1461 1454 1450 1444 1446 1449 1452 1455 1459 1465 1470 1475 1482 1490 1497 1505 1514 1521 1530 1538 1546 1553 1559 1563
1555 1554 1552 1550 1548 1546 1544 1541 1537 1536 1532 1528 1523 1519 1515 1510 1503 1492 1486 1482 1474 1467 1463 1467 1469 1471 1474 1477 1481 1484 1490 1497 1504 1509 1517 1524 1531 1537 1544 1550 1559 1565 1571
1559 1558 1558 1556 1554 1553 1551 1549 1547 1543 1540 1537 1535 1532 1529 1524 1519 1512 1503 1500 1491 1488 1488 1489 1490 1492 1493 1495 1497 1501 1507 1511 1515 1521 1527 1535 1540 1546 1552 1558 1565 1570 1574
1564 1563 1562 1561 1560 1559 1558 1556 1554 1553 1551 1549 1548 1544 1542 1539 1533 1525 1521 1514 1513 1511 1512 1510 1512 1513 1513 1515 1516 1518 1523 1525 1528 1532 1537 1543 1549 1555 1559 1564 1569 1574 1578
1566 1567 1567 1566 1565 1565 1564 1562 1561 1560 1558 1557 1556 1554 1554 1550 1542 1540 1537 1535 1534 1533 1534 1532 1533 1534 1534 1535 1536 1539 1541 1544 1546 1548 1552 1555 1561 1566 1569 1574 1576 1581 1586
1569 1569 1570 1570 1569 1569 1569 1568 1567 1567 1566 1565 1563 1563 1561 1558 1556 1554 1553 1552 1552 1551 1551 1551 1550 1550 1551 1552 1554 1555 1556 1558 1562 1564 1566 1569 1573 1576 1579 1583 1586 1590 1592
1572 1572 1572 1573 1573 1573 1573 1573 1572 1572 1572 1571 1571 1570 1569 1568 1567 1566 1566 1565 1565 1565 1566 1566 1565 1565 1566 1567 1568 1569 1570 1572 1575 1577 1578 1580 1582 1585 1588 1590 1592 1594 1597
1574 1575 1575 1575 1576 1576 1576 1577 1577 1577 1577 1576 1577 1577 1577 1576 1576 1577 1576 1576 1576 1576 1576 1576 1576 1576 1577 1578 1580 1582 1582 1583 1585 1588 1590 1592 1593 1595 1598 1599 1601 1602 1604
1575 1576 1577 1578 1578 1579 1579 1580 1580 1581 1582 1582 1582 1582 1583 1583 1583 1584 1584 1584 1584 1585 1586 1586 1586 1586 1587 1587 1589 1590 1590 1591 1593 1595 1597 1598 1600 1601 1602 1603 1604 1606 1607
1575 1576 1578 1579 1580 1581 1582 1582 1583 1584 1584 1585 1586 1586 1587 1588 1588 1589 1589 1590 1590 1591 1591 1592 1592 1593 1594 1595 1596 1597 1599 1600 1601 1603 1604 1605 1606 1607 1607 1608 1608 1609 1610
1575 1576 1578 1579 1581 1582 1583 1584 1585 1585 1586 1587 1588 1589 1590 1591 1591 1592 1593 1594 1595 1595 1596 1597 1598 1599 1600 1601 1601 1602 1602 1603 1604 1606 1607 1607 1608 1609 1610 1610 1610 1610 1611